TimeCDT,TemperatureF,Dew PointF,Humidity,Sea Level PressureIn,VisibilityMPH,Wind Direction,Wind SpeedMPH,Gust SpeedMPH,PrecipitationIn,Events,Conditions,WindDirDegrees,DateUTC
12:15 AM,42.8,41.5,95,29.66,4.0,NW,10.4,-,0.09,Rain,Rain,310,2013-04-18 05:15:00
12:35 AM,42.4,41.2,95,29.71,7.0,WNW,11.5,-,0.11,Rain,Rain,290,2013-04-18 05:35:00
12:55 AM,42.1,40.8,95,29.72,2.0,Calm,Calm,-,0.27,,Overcast,0,2013-04-18 05:55:00
1:15 AM,41.9,40.6,95,29.68,5.0,NNW,10.4,-,0.08,,Unknown,340,2013-04-18 06:15:00
1:35 AM,41.5,40.3,95,29.67,10.0,NW,11.5,16.1,0.08,,Drizzle,320,2013-04-18 06:35:00
1:55 AM,41.4,40.1,95,29.66,10.0,NNW,10.4,16.1,0.08,,Overcast,340,2013-04-18 06:55:00
2:15 AM,41.4,40.1,95,29.68,5.0,NW,9.2,-,0.01,Rain,Rain,310,2013-04-18 07:15:00
2:35 AM,41.2,40.1,96,29.66,5.0,NW,6.9,-,0.07,Rain,Light Rain,320,2013-04-18 07:35:00
2:55 AM,41.0,39.7,95,29.64,7.0,NNW,10.4,-,0.08,Rain,Rain,340,2013-04-18 07:55:00
3:15 AM,41.0,39.6,95,29.64,5.0,NW,9.2,-,0.05,Rain,Rain,310,2013-04-18 08:15:00
3:35 AM,40.5,39.2,95,29.59,7.0,NNW,17.3,-,0.13,Rain,Rain,340,2013-04-18 08:35:00
3:55 AM,40.1,38.7,95,29.63,10.0,NNW,15.0,19.6,0.14,,Light Drizzle,330,2013-04-18 08:55:00
4:15 AM,40.1,38.5,94,29.63,10.0,NNW,16.1,-,N/A,,Overcast,340,2013-04-18 09:15:00
4:35 AM,39.7,38.3,95,29.64,3.0,NNW,16.1,21.9,N/A,Rain,Rain,340,2013-04-18 09:35:00
4:55 AM,39.6,38.3,95,29.63,5.0,NNW,16.1,20.7,N/A,,Light Drizzle,340,2013-04-18 09:55:00
5:15 AM,39.4,38.3,96,29.60,4.0,North,15.0,20.7,N/A,,Overcast,360,2013-04-18 10:15:00
5:35 AM,39.2,37.9,95,29.61,4.0,NNW,16.1,21.9,N/A,,Overcast,340,2013-04-18 10:35:00
5:55 AM,39.2,37.8,95,29.59,4.0,North,19.6,24.2,N/A,Rain,Rain,360,2013-04-18 10:55:00
6:15 AM,39.0,37.8,95,29.55,10.0,NE,13.8,-,N/A,,Overcast,50,2013-04-18 11:15:00
6:35 AM,39.2,37.8,95,29.57,10.0,North,11.5,-,N/A,,Overcast,10,2013-04-18 11:35:00
6:55 AM,39.2,37.8,95,29.58,10.0,NNE,9.2,-,N/A,,Overcast,20,2013-04-18 11:55:00
7:15 AM,39.2,37.8,95,29.57,10.0,North,11.5,19.6,N/A,,Overcast,360,2013-04-18 12:15:00
7:35 AM,39.2,37.8,95,29.59,7.0,North,8.1,-,N/A,,Overcast,360,2013-04-18 12:35:00
7:55 AM,38.8,37.6,95,29.60,4.0,North,5.8,-,N/A,Rain,Light Rain,350,2013-04-18 12:55:00
8:15 AM,38.8,37.8,96,29.57,3.0,North,10.4,-,0.05,Rain,Light Rain,360,2013-04-18 13:15:00
8:35 AM,38.8,37.8,96,29.55,5.0,North,8.1,-,0.05,,Overcast,10,2013-04-18 13:35:00
8:55 AM,38.8,37.8,96,29.55,5.0,North,10.4,-,0.05,,Drizzle,360,2013-04-18 13:55:00
9:15 AM,38.7,37.6,96,29.53,4.0,North,10.4,-,0.01,,Light Drizzle,350,2013-04-18 14:15:00
9:35 AM,38.8,37.6,95,29.55,2.0,NNW,8.1,-,0.01,Rain,Rain,330,2013-04-18 14:35:00
9:55 AM,38.5,37.4,96,29.54,2.0,NW,11.5,-,0.02,,Drizzle,310,2013-04-18 14:55:00
10:15 AM,38.3,37.2,96,29.55,1.8,NW,10.4,-,0.01,,Drizzle,310,2013-04-18 15:15:00
10:35 AM,37.8,36.7,96,29.56,1.5,WNW,13.8,-,0.01,,Light Drizzle,300,2013-04-18 15:35:00
10:55 AM,37.6,36.5,96,29.56,1.8,WNW,18.4,-,0.01,,Light Drizzle,300,2013-04-18 15:55:00
11:15 AM,37.6,36.5,96,29.57,1.8,WNW,15.0,-,N/A,Rain,Light Rain,300,2013-04-18 16:15:00
11:35 AM,37.2,36.0,95,29.56,1.5,WNW,17.3,24.2,N/A,,Light Drizzle,300,2013-04-18 16:35:00
11:55 AM,36.9,35.6,95,29.56,2.5,NW,18.4,25.3,N/A,,Overcast,310,2013-04-18 16:55:00
12:15 PM,36.5,34.9,94,29.57,2.5,WNW,21.9,27.6,N/A,,Overcast,300,2013-04-18 17:15:00
12:35 PM,37.0,35.1,93,29.57,10.0,NW,17.3,27.6,N/A,,Overcast,310,2013-04-18 17:35:00
12:55 PM,37.2,34.9,91,29.57,10.0,NW,19.6,27.6,N/A,,Overcast,310,2013-04-18 17:55:00
1:15 PM,37.0,34.5,91,29.58,7.0,WNW,18.4,24.2,N/A,,Overcast,290,2013-04-18 18:15:00
1:35 PM,38.1,34.7,87,29.57,10.0,WNW,20.7,25.3,N/A,,Overcast,300,2013-04-18 18:35:00
1:55 PM,38.3,35.1,88,29.60,10.0,WNW,18.4,26.5,N/A,,Overcast,300,2013-04-18 18:55:00
2:15 PM,38.3,35.1,88,29.60,7.0,WNW,23.0,26.5,N/A,,Overcast,290,2013-04-18 19:15:00
2:35 PM,37.4,34.0,87,29.62,10.0,WNW,19.6,29.9,N/A,,Overcast,290,2013-04-18 19:35:00
2:55 PM,37.6,34.0,87,29.62,7.0,WNW,18.4,27.6,N/A,,Overcast,290,2013-04-18 19:55:00
3:35 PM,37.8,33.6,85,29.63,10.0,WNW,19.6,29.9,N/A,,Overcast,290,2013-04-18 20:35:00
3:55 PM,37.4,33.1,84,29.63,7.0,West,24.2,27.6,N/A,,Overcast,270,2013-04-18 20:55:00
4:15 PM,37.0,32.0,82,29.63,10.0,West,19.6,27.6,N/A,,Overcast,280,2013-04-18 21:15:00
4:35 PM,36.3,32.0,84,29.65,10.0,West,19.6,29.9,N/A,,Overcast,280,2013-04-18 21:35:00
4:55 PM,35.8,30.6,81,29.66,10.0,West,25.3,33.4,N/A,,Overcast,280,2013-04-18 21:55:00
5:15 PM,35.8,30.2,80,29.67,10.0,West,18.4,31.1,N/A,,Overcast,280,2013-04-18 22:15:00
5:35 PM,35.6,30.0,80,29.68,10.0,West,20.7,28.8,N/A,,Overcast,280,2013-04-18 22:35:00
5:55 PM,35.2,29.8,81,29.69,10.0,West,24.2,28.8,N/A,,Overcast,280,2013-04-18 22:55:00
6:15 PM,35.1,29.7,81,29.69,10.0,WNW,20.7,25.3,N/A,,Overcast,290,2013-04-18 23:15:00
6:35 PM,34.9,29.1,79,29.70,10.0,West,23.0,33.4,N/A,,Overcast,280,2013-04-18 23:35:00
6:55 PM,34.7,29.3,81,29.71,10.0,West,20.7,31.1,N/A,,Overcast,280,2013-04-18 23:55:00
7:15 PM,34.3,29.3,82,29.72,10.0,West,24.2,28.8,N/A,,Overcast,270,2013-04-19 00:15:00
7:35 PM,34.3,29.1,81,29.72,10.0,West,23.0,27.6,N/A,,Overcast,270,2013-04-19 00:35:00
7:55 PM,34.2,29.3,82,29.73,10.0,West,18.4,26.5,N/A,,Overcast,280,2013-04-19 00:55:00
8:15 PM,34.0,29.1,82,29.73,10.0,West,19.6,31.1,N/A,,Overcast,270,2013-04-19 01:15:00
8:35 PM,34.0,29.1,82,29.74,10.0,West,19.6,25.3,N/A,,Overcast,270,2013-04-19 01:35:00
10:35 PM,33.4,28.6,82,29.76,10.0,West,16.1,25.3,N/A,,Overcast,280,2013-04-19 03:35:00
10:55 PM,33.1,28.4,83,29.76,10.0,West,17.3,27.6,N/A,,Overcast,280,2013-04-19 03:55:00
11:15 PM,32.9,28.0,82,29.76,10.0,West,17.3,28.8,N/A,,Overcast,280,2013-04-19 04:15:00
11:35 PM,32.9,27.5,81,29.75,10.0,West,19.6,26.5,N/A,,Overcast,280,2013-04-19 04:35:00
11:55 PM,32.9,27.3,80,29.75,10.0,West,19.6,25.3,N/A,,Overcast,280,2013-04-19 04:55:00